Dewpoint
61 48 38 34 30 31 30 32 35 39 46 47 48 47 47 51 50 36 64 67 71 73 75 75 76 76 76 76 75 75 75 75 75 75 75 75 75 75 75 76 76 75 73 72 71 71 70 71 70
57 42 32 30 28 27 27 32 32 32 36 49 49 50 46 50 60 65 66 68 71 73 74 74 76 76 76 76 75 75 75 75 75 75 75 75 75 75 74 75 75 73 72 71 71 70 70 70 70
43 39 29 27 28 27 27 31 31 32 41 50 51 55 55 55 64 65 67 70 71 72 73 73 76 76 76 76 75 75 75 75 75 75 75 75 75 75 75 75 74 72 70 70 70 71 70 70 70
35 32 30 26 26 29 30 31 32 31 33 41 53 52 57 59 64 66 69 70 71 73 73 75 76 76 76 75 75 75 75 75 75 75 75 75 75 75 75 75 74 72 70 70 70 71 70 70 69
32 29 26 28 27 28 30 32 33 32 32 40 52 51 54 65 68 69 68 69 71 72 74 76 76 76 76 75 75 75 75 75 75 75 74 75 75 75 75 74 73 72 70 70 71 71 71 72 71
30 27 23 23 25 28 29 31 32 32 32 42 51 51 57 67 68 68 68 68 71 73 75 75 77 76 76 76 75 75 75 75 75 75 75 75 75 75 74 74 73 73 72 71 71 72 72 72 71
29 23 22 24 25 27 28 32 34 31 42 42 52 55 60 65 68 67 70 71 73 74 74 75 75 76 76 76 75 75 75 75 75 75 75 75 75 75 74 74 74 73 73 72 72 72 72 72 71
29 26 23 22 23 25 28 28 35 35 43 54 62 55 58 62 66 70 71 71 72 73 73 73 74 75 74 74 76 75 75 75 75 75 75 75 74 74 74 73 73 73 73 72 72 72 71 71 71
28 23 22 22 21 22 25 28 32 37 41 60 61 62 64 67 68 68 68 69 70 71 72 72 72 72 72 74 74 75 75 75 75 75 75 73 72 72 72 73 73 73 73 73 72 72 71 71 70
28 25 22 23 23 25 25 32 31 35 38 43 59 61 65 66 67 66 66 66 66 68 69 70 72 71 72 73 73 73 73 73 73 73 73 71 70 70 71 72 73 73 73 73 72 72 71 71 67
27 25 25 24 25 27 25 30 31 35 36 39 52 60 62 63 65 65 66 68 68 68 68 69 70 70 71 72 72 72 73 73 72 72 71 70 70 69 70 69 70 70 71 70 70 69 69 67 66
28 28 26 27 26 25 25 33 34 36 36 39 45 60 61 62 63 65 66 66 68 68 67 67 67 68 68 71 72 71 71 71 71 71 71 70 68 67 67 68 67 67 68 68 68 68 67 66 66
28 29 30 29 27 26 27 32 35 38 41 40 53 58 59 60 61 65 67 68 67 67 67 66 65 65 65 67 69 69 70 70 71 70 70 69 68 66 65 66 66 67 67 67 67 67 65 64 64
26 27 27 29 28 27 28 31 36 39 41 40 41 48 54 55 60 65 66 66 66 67 67 67 66 64 65 66 67 66 67 68 68 68 68 68 67 65 65 65 65 67 67 67 66 66 64 64 64
26 24 23 24 28 27 30 31 34 39 39 40 40 40 48 54 58 61 63 66 66 66 67 67 67 67 62 63 67 66 65 66 66 66 66 67 67 66 63 63 65 66 66 66 66 65 66 66 66
22 22 20 25 26 28 30 26 34 39 38 39 39 39 42 42 56 60 64 66 67 67 67 68 69 66 65 60 65 68 66 64 65 65 66 67 67 67 66 64 63 64 66 67 66 66 66 66 66
21 17 21 21 28 33 33 32 35 40 39 39 40 41 39 37 43 51 66 67 68 67 66 66 65 65 64 61 63 67 68 65 67 66 66 67 67 67 67 67 67 68 69 69 68 68 67 66 67
17 18 18 20 26 33 36 37 38 38 38 38 38 38 41 36 50 60 65 67 67 66 66 64 65 65 62 65 70 69 71 71 69 68 67 68 67 67 67 67 68 69 69 69 69 68 68 68 67
16 17 18 23 21 36 37 37 38 38 38 38 38 40 41 37 49 64 64 65 66 64 65 65 64 63 62 64 66 70 71 70 71 71 70 69 70 69 68 69 68 69 69 69 68 67 66 66 66
20 16 17 21 34 33 33 36 39 39 38 38 38 39 40 38 45 52 61 63 63 63 63 62 62 62 61 62 63 68 71 71 71 70 70 71 71 71 70 70 69 69 69 68 67 67 66 66 64
19 18 19 25 30 37 37 37 39 39 37 38 37 38 39 38 44 49 52 57 58 60 61 61 59 59 59 60 66 68 69 68 67 67 68 69 70 71 71 70 69 68 68 68 67 66 66 64 64
17 19 17 21 28 25 34 25 30 38 36 33 34 35 37 38 37 50 55 57 57 59 59 60 61 63 65 66 64 65 65 64 65 65 66 67 66 67 67 66 66 65 65 67 66 65 64 65 64
18 18 17 18 25 27 26 28 28 29 36 35 30 29 30 35 43 54 60 62 64 63 61 59 59 59 60 61 62 64 62 62 61 61 61 62 64 65 65 64 62 62 66 66 67 65 64 64 64
20 16 23 22 19 21 23 27 27 26 28 34 32 28 27 38 53 60 62 62 60 59 57 57 56 57 57 58 60 59 59 59 59 59 59 59 60 60 61 63 63 64 65 66 67 65 65 66 66
15 14 19 16 21 22 26 21 25 28 26 28 28 28 33 53 59 60 60 59 56 55 54 55 54 53 54 55 55 55 55 55 55 55 55 56 57 57 57 58 58 60 61 62 63 62 63 63 63
15 17 20 16 19 18 22 20 20 34 41 31 26 29 45 56 58 58 57 55 54 53 53 52 51 51 50 51 50 51 52 52 52 53 53 53 54 55 54 55 55 56 57 58 59 61 60 61 61
18 17 20 21 26 20 22 28 32 40 40 43 34 40 50 54 55 55 53 53 52 52 52 51 50 48 48 48 48 48 48 49 49 50 51 51 51 52 52 52 52 52 53 54 54 56 57 59 59
17 23 23 29 21 19 26 32 26 39 40 43 39 42 50 50 50 50 51 51 51 51 50 49 49 47 46 47 46 47 48 48 48 48 48 48 48 49 50 50 50 50 50 49 49 49 51 52 54
17 21 25 25 23 22 23 28 39 40 41 44 37 43 48 47 47 48 49 50 50 50 49 49 48 46 45 45 46 46 46 46 46 45 45 46 46 46 47 48 49 49 49 49 48 48 49 48 49
18 22 25 25 26 31 29 26 45 44 46 47 39 41 42 46 47 47 48 48 48 46 44 44 46 44 44 44 45 46 46 44 44 44 44 45 45 46 47 48 48 49 49 48 48 47 47 47 47
Lifted_Index
6 7 6 5 4 3 1 1 1 1 1 0 -0 -0 -1 -1 -1 -1 -2 -3 -3 -3 -3 -3 -3 -4 -4 -3 -3 -3 -3 -3 -3 -3 -3 -3 -3 -2 -3 -3 -3 -3 -2 -1 -0 -0 -0 -0 -0
7 6 5 4 3 2 1 1 1 1 1 -0 -0 -1 -1 -2 -2 -3 -3 -3 -3 -3 -3 -3 -3 -4 -4 -4 -3 -3 -3 -3 -3 -3 -3 -3 -3 -2 -2 -3 -3 -2 -1 -1 -0 -0 -0 -0 -0
7 6 4 3 3 2 1 1 1 1 -0 -1 -1 -1 -1 -2 -4 -4 -4 -4 -4 -4 -3 -3 -4 -4 -4 -4 -4 -3 -3 -3 -3 -3 -3 -3 -3 -3 -2 -2 -2 -1 -0 -0 -0 -0 -0 0 0
7 5 4 3 3 3 2 1 1 1 -0 -1 -2 -2 -2 -3 -4 -5 -4 -4 -4 -4 -4 -4 -4 -4 -4 -4 -4 -4 -4 -4 -3 -3 -3 -3 -3 -3 -3 -2 -1 -1 -0 -0 -0 -0 -0 0 0
6 5 3 3 3 3 2 2 1 1 1 -1 -2 -2 -3 -4 -5 -5 -4 -4 -4 -4 -5 -5 -5 -5 -5 -5 -4 -4 -4 -4 -4 -4 -3 -3 -4 -3 -3 -2 -2 -1 -0 -0 -1 -1 -1 -0 0
5 4 3 3 2 2 2 2 1 1 1 -0 -1 -2 -3 -5 -6 -5 -4 -4 -4 -4 -5 -6 -6 -6 -5 -5 -5 -4 -4 -4 -4 -4 -4 -4 -4 -3 -3 -3 -2 -2 -1 -1 -1 -1 -1 -0 -0
4 3 3 2 2 2 2 2 2 1 1 -1 -2 -3 -4 -5 -6 -5 -4 -4 -4 -5 -5 -6 -6 -6 -6 -5 -5 -5 -4 -4 -4 -4 -4 -4 -3 -3 -3 -3 -2 -2 -2 -1 -1 -1 -0 -0 -0
5 4 3 2 2 2 2 2 2 1 -1 -3 -3 -4 -4 -5 -6 -5 -5 -4 -4 -4 -5 -5 -5 -6 -6 -6 -6 -5 -5 -5 -4 -4 -4 -3 -3 -3 -3 -3 -3 -2 -2 -1 -1 -1 -0 0 0
6 5 3 2 2 2 2 2 2 1 -2 -4 -4 -4 -4 -5 -5 -5 -4 -4 -4 -4 -4 -4 -4 -5 -5 -6 -6 -6 -5 -5 -4 -4 -4 -3 -3 -2 -3 -3 -2 -2 -2 -2 -1 -0 0 1 1
7 6 4 3 2 2 2 2 2 1 -2 -4 -4 -4 -4 -5 -4 -4 -4 -4 -4 -4 -3 -3 -3 -3 -4 -5 -5 -5 -5 -5 -4 -4 -4 -3 -2 -2 -2 -2 -2 -2 -2 -2 -1 -1 0 1 1
7 6 5 3 3 3 2 2 3 2 -1 -3 -4 -4 -5 -5 -4 -4 -4 -4 -4 -4 -4 -3 -3 -3 -3 -3 -4 -4 -4 -4 -4 -4 -3 -3 -2 -1 -1 -1 -1 -1 -1 -1 -1 -0 0 1 2
7 6 5 4 3 3 3 2 2 2 1 -2 -4 -4 -5 -5 -4 -4 -3 -4 -4 -4 -3 -3 -2 -2 -2 -2 -2 -3 -3 -3 -3 -3 -3 -2 -1 -0 0 0 0 0 -0 -0 -1 -0 0 1 2
7 6 5 4 4 4 3 2 2 2 2 1 -1 -3 -3 -3 -3 -3 -3 -4 -4 -4 -3 -2 -2 -2 -2 -2 -2 -1 -2 -2 -2 -2 -2 -2 -1 1 1 1 1 1 0 -0 -0 -0 -0 -0 0
7 6 5 4 4 4 3 2 2 2 3 3 2 1 -0 -1 -1 -2 -2 -3 -3 -3 -3 -2 -2 -2 -2 -2 -2 -2 -2 -2 -2 -2 -2 -1 -0 0 1 1 1 1 -0 -1 -1 -1 -1 -1 -1
7 6 5 5 4 4 4 2 2 2 2 3 3 3 2 1 -0 -1 -1 -2 -3 -3 -3 -3 -2 -2 -2 -2 -2 -2 -2 -3 -3 -2 -2 -2 -2 -1 -1 -0 0 -0 -1 -1 -1 -2 -2 -2 -2
7 6 5 5 4 5 4 3 3 3 2 2 3 3 3 2 1 0 -1 -2 -3 -3 -3 -3 -2 -2 -2 -2 -2 -3 -3 -3 -3 -3 -3 -3 -3 -3 -3 -2 -2 -2 -2 -2 -2 -3 -3 -3 -3
6 6 5 5 5 5 5 4 3 3 3 2 2 3 3 3 2 1 -1 -2 -3 -3 -2 -2 -1 -1 -0 -1 -2 -3 -4 -4 -4 -4 -4 -4 -4 -4 -4 -4 -3 -3 -3 -3 -3 -4 -4 -4 -4
6 6 5 5 5 5 4 4 3 3 3 3 2 2 3 3 2 0 -2 -3 -3 -2 -2 -1 -0 0 1 1 -1 -2 -4 -5 -5 -5 -5 -4 -4 -4 -4 -4 -4 -4 -3 -3 -4 -4 -4 -4 -4
6 6 6 6 5 5 4 3 3 2 3 3 3 3 3 2 1 -1 -2 -3 -3 -3 -2 -1 -0 0 1 1 0 -2 -4 -5 -5 -5 -5 -5 -5 -5 -5 -5 -5 -4 -4 -4 -4 -3 -3 -4 -4
7 6 6 6 5 4 4 3 3 3 3 3 3 3 3 3 1 -1 -2 -3 -3 -3 -3 -2 -1 -0 0 1 0 -1 -3 -4 -5 -5 -5 -5 -5 -5 -5 -5 -5 -5 -4 -4 -4 -3 -3 -3 -4
7 7 6 5 4 3 3 3 3 3 3 3 3 3 3 3 2 1 -1 -1 -2 -2 -2 -2 -2 -1 -1 -0 -0 -1 -3 -4 -4 -5 -5 -4 -4 -5 -5 -5 -5 -5 -5 -4 -4 -3 -3 -3 -3
7 6 6 5 4 3 2 3 3 3 3 3 3 3 3 3 3 2 0 -0 -1 -1 -2 -3 -3 -3 -3 -2 -2 -2 -3 -4 -4 -4 -4 -4 -4 -4 -4 -4 -4 -4 -4 -4 -4 -3 -3 -3 -3
6 6 5 4 4 3 2 3 3 4 4 3 3 2 3 3 3 1 -0 -1 -1 -2 -2 -3 -4 -4 -5 -5 -4 -4 -4 -3 -3 -3 -3 -3 -3 -3 -3 -3 -3 -3 -3 -3 -3 -3 -3 -3 -2
5 4 3 2 2 2 3 3 3 4 3 3 2 2 2 2 1 -1 -2 -2 -2 -2 -3 -3 -4 -5 -5 -5 -4 -4 -3 -3 -2 -2 -2 -2 -2 -2 -2 -2 -2 -2 -2 -2 -3 -3 -3 -2 -2
3 3 1 0 1 2 3 3 3 3 3 2 2 2 2 -0 -2 -3 -3 -3 -2 -2 -2 -2 -2 -2 -2 -2 -2 -2 -2 -2 -1 -0 0 1 1 1 1 1 -0 -0 -1 -1 -1 -2 -1 -2 -2
2 1 1 0 1 1 2 2 2 2 2 2 3 3 1 -1 -3 -4 -3 -2 -1 -1 -0 0 1 1 2 2 1 1 0 1 2 3 4 4 4 5 5 4 3 3 2 1 1 -0 -0 -1 -1
1 1 0 0 0 1 1 1 1 1 1 1 2 2 1 -2 -3 -3 -2 -0 0 0 1 1 2 2 3 4 4 3 4 4 5 6 7 7 7 8 8 7 7 6 6 5 4 3 2 1 1
1 1 0 0 0 0 0 1 1 0 0 1 2 2 0 -2 -3 -2 -1 0 0 0 1 1 2 2 3 4 4 5 6 7 7 8 8 8 9 9 9 9 9 9 8 8 7 7 6 5 4
1 1 0 -0 -0 -0 0 0 0 -0 0 0 1 0 -1 -2 -2 -2 -1 -0 0 0 1 1 2 3 3 4 5 5 6 6 7 7 7 8 9 9 10 10 10 9 9 9 9 9 9 8 8
1 1 0 0 -0 -0 0 0 -0 -0 -0 0 0 -1 -2 -3 -2 -1 -1 -0 -0 0 1 2 2 3 3 4 5 5 6 6 6 6 7 7 8 9 10 10 10 10 10 10 10 10 10 10 10